Time,TemperatureF,DewpointF,PressureIn,WindDirection,WindDirectionDegrees,WindSpeedMPH,WindSpeedGustMPH,Humidity,HourlyPrecipIn,Conditions,Clouds,dailyrainin,SoftwareType,DateUTC
2013-03-05 00:02:00,-999.0,-99.9,30.17,SW,234,2.0,3.0,-999,-99.99,,,-99.99,,2013-03-05 05:02:00,
2013-03-05 00:12:00,-999.0,-99.9,30.17,WSW,241,0.0,2.0,-999,-99.99,,,-99.99,,2013-03-05 05:12:00,
2013-03-05 00:23:00,16.0,-99.9,30.17,West,270,1.0,1.0,-999,-99.99,,,-99.99,,2013-03-05 05:23:00,
2013-03-05 00:32:00,-999.0,-99.9,30.17,NNE,30,2.0,3.0,-999,-99.99,,,-99.99,,2013-03-05 05:32:00,
2013-03-05 00:42:00,-999.0,-99.9,30.17,WSW,241,2.0,2.0,-999,-99.99,,,-99.99,,2013-03-05 05:42:00,
2013-03-05 00:52:00,18.0,-99.9,30.17,West,266,0.0,2.0,-999,-99.99,,,-99.99,,2013-03-05 05:52:00,
2013-03-05 01:02:00,-999.0,-99.9,30.18,West,274,2.0,3.0,-999,-99.99,,,-99.99,,2013-03-05 06:02:00,
2013-03-05 01:11:00,-999.0,-99.9,30.18,NW,321,2.0,4.0,-999,-99.99,,,-99.99,,2013-03-05 06:11:00,
2013-03-05 01:22:00,-999.0,-99.9,30.18,North,349,2.0,4.0,-999,-99.99,,,-99.99,,2013-03-05 06:22:00,
2013-03-05 01:32:00,-999.0,-99.9,30.19,North,1,4.0,4.0,-999,-99.99,,,-99.99,,2013-03-05 06:32:00,
2013-03-05 01:42:00,-999.0,-99.9,30.19,NNE,14,2.0,5.0,-999,-99.99,,,-99.99,,2013-03-05 06:42:00,
2013-03-05 01:52:00,14.0,-99.9,30.19,North,2,0.0,4.0,-999,-99.99,,,-99.99,,2013-03-05 06:52:00,
2013-03-05 02:01:00,-999.0,-99.9,30.19,NNE,28,2.0,2.0,-999,-99.99,,,-99.99,,2013-03-05 07:01:00,
2013-03-05 02:11:00,-999.0,-99.9,30.19,North,4,3.0,3.0,-999,-99.99,,,-99.99,,2013-03-05 07:11:00,
2013-03-05 02:22:00,13.0,-99.9,30.19,NE,47,1.0,3.0,-999,-99.99,,,-99.99,,2013-03-05 07:22:00,
2013-03-05 02:52:00,12.0,-99.9,30.20,North,358,-999.0,2.0,-999,-99.99,,,-99.99,,2013-03-05 07:52:00,
2013-03-05 03:02:00,-999.0,-99.9,30.19,North,4,1.0,3.0,-999,-99.99,,,-99.99,,2013-03-05 08:02:00,
2013-03-05 03:11:00,-999.0,-99.9,30.19,WSW,249,1.0,2.0,-999,-99.99,,,-99.99,,2013-03-05 08:11:00,
2013-03-05 03:21:00,13.0,-99.9,30.20,WSW,247,2.0,4.0,-999,-99.99,,,-99.99,,2013-03-05 08:21:00,
2013-03-05 03:32:00,-999.0,-99.9,30.20,NNW,346,3.0,4.0,-999,-99.99,,,-99.99,,2013-03-05 08:32:00,
2013-03-05 03:42:00,-999.0,-99.9,30.19,NNE,32,5.0,6.0,-999,-99.99,,,-99.99,,2013-03-05 08:42:00,
2013-03-05 03:52:00,12.0,-99.9,30.20,East,79,2.0,6.0,-999,-99.99,,,-99.99,,2013-03-05 08:52:00,
2013-03-05 04:02:00,-999.0,-99.9,30.20,NNE,24,2.0,4.0,-999,-99.99,,,-99.99,,2013-03-05 09:02:00,
2013-03-05 04:11:00,-999.0,-99.9,30.19,NE,34,4.0,5.0,-999,-99.99,,,-99.99,,2013-03-05 09:11:00,
2013-03-05 04:22:00,12.0,-99.9,30.20,NE,56,1.0,5.0,-999,-99.99,,,-99.99,,2013-03-05 09:22:00,
2013-03-05 04:32:00,-999.0,-99.9,30.20,WNW,284,2.0,2.0,-999,-99.99,,,-99.99,,2013-03-05 09:32:00,
2013-03-05 04:43:00,-999.0,-99.9,30.20,NW,306,1.0,2.0,-999,-99.99,,,-99.99,,2013-03-05 09:43:00,
2013-03-05 04:52:00,-999.0,-99.9,30.20,NNW,338,1.0,2.0,-999,-99.99,,,-99.99,,2013-03-05 09:52:00,
2013-03-05 05:02:00,-999.0,-99.9,30.20,NNW,339,2.0,2.0,-999,-99.99,,,-99.99,,2013-03-05 10:02:00,
2013-03-05 05:11:00,-999.0,-99.9,30.20,North,-999,1.0,2.0,-999,-99.99,,,-99.99,,2013-03-05 10:11:00,
2013-03-05 05:22:00,11.0,-99.9,30.19,ENE,65,2.0,2.0,-999,-99.99,,,-99.99,,2013-03-05 10:22:00,
2013-03-05 05:32:00,-999.0,-99.9,30.19,East,86,0.0,1.0,-999,-99.99,,,-99.99,,2013-03-05 10:32:00,
2013-03-05 05:42:00,-999.0,-99.9,30.19,ENE,76,1.0,2.0,-999,-99.99,,,-99.99,,2013-03-05 10:42:00,
2013-03-05 05:52:00,11.0,-99.9,30.19,ENE,68,1.0,2.0,-999,-99.99,,,-99.99,,2013-03-05 10:52:00,
2013-03-05 06:02:00,-999.0,-99.9,30.19,ENE,66,0.0,1.0,-999,-99.99,,,-99.99,,2013-03-05 11:02:00,
2013-03-05 06:12:00,-999.0,-99.9,30.18,ENE,65,2.0,3.0,-999,-99.99,,,-99.99,,2013-03-05 11:12:00,
2013-03-05 06:22:00,-999.0,-99.9,30.18,East,101,0.0,3.0,-999,-99.99,,,-99.99,,2013-03-05 11:22:00,
2013-03-05 06:42:00,-999.0,-99.9,30.19,South,179,1.0,2.0,-999,-99.99,,,-99.99,,2013-03-05 11:42:00,
2013-03-05 06:52:00,11.0,-99.9,30.19,SE,134,0.0,2.0,-999,-99.99,,,-99.99,,2013-03-05 11:52:00,
2013-03-05 07:03:00,-999.0,-99.9,30.19,East,87,1.0,2.0,-999,-99.99,,,-99.99,,2013-03-05 12:03:00,
2013-03-05 07:12:00,-999.0,-99.9,30.19,East,88,2.0,3.0,-999,-99.99,,,-99.99,,2013-03-05 12:12:00,
2013-03-05 07:22:00,12.0,-99.9,30.19,East,99,2.0,3.0,-999,-99.99,,,-99.99,,2013-03-05 12:22:00,
2013-03-05 07:32:00,-999.0,-99.9,30.19,ESE,110,2.0,3.0,-999,-99.99,,,-99.99,,2013-03-05 12:32:00,
2013-03-05 07:42:00,-999.0,-99.9,30.19,East,94,1.0,2.0,-999,-99.99,,,-99.99,,2013-03-05 12:42:00,
2013-03-05 07:53:00,11.0,-99.9,30.19,ENE,76,2.0,3.0,-999,-99.99,,,-99.99,,2013-03-05 12:53:00,
2013-03-05 08:12:00,-999.0,-99.9,30.19,ENE,77,1.0,2.0,-999,-99.99,,,-99.99,,2013-03-05 13:12:00,
2013-03-05 08:22:00,14.0,-99.9,30.19,ENE,78,2.0,2.0,-999,-99.99,,,-99.99,,2013-03-05 13:22:00,
2013-03-05 08:32:00,-999.0,-99.9,30.19,ENE,62,4.0,5.0,-999,-99.99,,,-99.99,,2013-03-05 13:32:00,
2013-03-05 08:42:00,-999.0,-99.9,30.19,NE,50,3.0,4.0,-999,-99.99,,,-99.99,,2013-03-05 13:42:00,
2013-03-05 08:52:00,15.0,-99.9,30.19,NE,52,4.0,5.0,-999,-99.99,,,-99.99,,2013-03-05 13:52:00,
2013-03-05 09:02:00,-999.0,-99.9,30.19,ENE,76,5.0,6.0,-999,-99.99,,,-99.99,,2013-03-05 14:02:00,
2013-03-05 09:11:00,-999.0,-99.9,30.19,ENE,73,7.0,8.0,-999,-99.99,,,-99.99,,2013-03-05 14:11:00,
2013-03-05 09:22:00,16.0,-99.9,30.18,ENE,74,7.0,9.0,-999,-99.99,,,-99.99,,2013-03-05 14:22:00,
2013-03-05 09:32:00,-999.0,-99.9,30.18,ENE,74,8.0,10.0,-999,-99.99,,,-99.99,,2013-03-05 14:32:00,
2013-03-05 09:42:00,-999.0,-99.9,30.18,ENE,75,5.0,6.0,-999,-99.99,,,-99.99,,2013-03-05 14:42:00,
2013-03-05 09:52:00,17.0,-99.9,30.18,ENE,68,5.0,6.0,-999,-99.99,,,-99.99,,2013-03-05 14:52:00,
2013-03-05 10:02:00,-999.0,-99.9,30.17,ENE,58,5.0,6.0,-999,-99.99,,,-99.99,,2013-03-05 15:02:00,
2013-03-05 10:11:00,-999.0,-99.9,30.17,NE,48,3.0,6.0,-999,-99.99,,,-99.99,,2013-03-05 15:11:00,
2013-03-05 10:22:00,18.0,-99.9,30.17,NE,46,4.0,5.0,-999,-99.99,,,-99.99,,2013-03-05 15:22:00,
2013-03-05 10:32:00,-999.0,-99.9,30.17,NNE,27,2.0,4.0,-999,-99.99,,,-99.99,,2013-03-05 15:32:00,
2013-03-05 10:42:00,-999.0,-99.9,30.16,ENE,64,1.0,4.0,-999,-99.99,,,-99.99,,2013-03-05 15:42:00,
2013-03-05 10:52:00,20.0,-99.9,30.16,NNE,25,2.0,3.0,-999,-99.99,,,-99.99,,2013-03-05 15:52:00,
2013-03-05 11:11:00,-999.0,-99.9,30.15,NE,51,2.0,4.0,-999,-99.99,,,-99.99,,2013-03-05 16:11:00,
2013-03-05 11:22:00,21.0,-99.9,30.15,NE,43,3.0,5.0,-999,-99.99,,,-99.99,,2013-03-05 16:22:00,
2013-03-05 11:32:00,-999.0,-99.9,30.15,ENE,76,4.0,6.0,-999,-99.99,,,-99.99,,2013-03-05 16:32:00,
2013-03-05 11:42:00,-999.0,-99.9,30.15,SSE,157,10.0,12.0,-999,-99.99,,,-99.99,,2013-03-05 16:42:00,
2013-03-05 11:52:00,22.0,-99.9,30.14,SSE,155,8.0,12.0,-999,-99.99,,,-99.99,,2013-03-05 16:52:00,
2013-03-05 12:01:00,-999.0,-99.9,30.14,SE,144,9.0,14.0,-999,-99.99,,,-99.99,,2013-03-05 17:01:00,
2013-03-05 12:11:00,-999.0,-99.9,30.14,SSE,155,8.0,12.0,-999,-99.99,,,-99.99,,2013-03-05 17:11:00,
2013-03-05 12:22:00,24.0,-99.9,30.14,SSE,159,7.0,11.0,-999,-99.99,,,-99.99,,2013-03-05 17:22:00,
2013-03-05 12:32:00,-999.0,-99.9,30.14,SSE,157,8.0,12.0,-999,-99.99,,,-99.99,,2013-03-05 17:32:00,
2013-03-05 12:42:00,-999.0,-99.9,30.14,SSE,157,7.0,10.0,-999,-99.99,,,-99.99,,2013-03-05 17:42:00,
2013-03-05 12:53:00,-999.0,-99.9,30.14,SSE,149,9.0,11.0,-999,-99.99,,,-99.99,,2013-03-05 17:53:00,
2013-03-05 13:02:00,-999.0,-99.9,30.13,SSE,154,7.0,10.0,-999,-99.99,,,-99.99,,2013-03-05 18:02:00,
2013-03-05 13:11:00,-999.0,-99.9,30.13,SSE,151,6.0,8.0,-999,-99.99,,,-99.99,,2013-03-05 18:11:00,
2013-03-05 13:22:00,26.0,-99.9,30.13,South,182,5.0,11.0,-999,-99.99,,,-99.99,,2013-03-05 18:22:00,
2013-03-05 13:32:00,-999.0,-99.9,30.12,South,188,5.0,8.0,-999,-99.99,,,-99.99,,2013-03-05 18:32:00,
2013-03-05 13:42:00,-999.0,-99.9,30.12,SSE,163,4.0,6.0,-999,-99.99,,,-99.99,,2013-03-05 18:42:00,
2013-03-05 13:53:00,28.0,-99.9,30.11,SE,146,5.0,7.0,-999,-99.99,,,-99.99,,2013-03-05 18:53:00,
2013-03-05 14:11:00,-999.0,-99.9,30.11,SSE,156,4.0,7.0,-999,-99.99,,,-99.99,,2013-03-05 19:11:00,
2013-03-05 14:22:00,28.0,-99.9,30.11,SSW,193,6.0,8.0,-999,-99.99,,,-99.99,,2013-03-05 19:22:00,
2013-03-05 14:32:00,-999.0,-99.9,30.11,SSE,168,6.0,8.0,-999,-99.99,,,-99.99,,2013-03-05 19:32:00,
2013-03-05 14:42:00,-999.0,-99.9,30.10,SSE,149,6.0,7.0,-999,-99.99,,,-99.99,,2013-03-05 19:42:00,
2013-03-05 14:52:00,30.0,-99.9,30.10,SSE,153,5.0,6.0,-999,-99.99,,,-99.99,,2013-03-05 19:52:00,
2013-03-05 15:02:00,-999.0,-99.9,30.10,SSE,153,4.0,5.0,-999,-99.99,,,-99.99,,2013-03-05 20:02:00,
2013-03-05 15:11:00,-999.0,-99.9,30.10,SSE,155,5.0,7.0,-999,-99.99,,,-99.99,,2013-03-05 20:11:00,
2013-03-05 15:22:00,31.0,-99.9,30.09,SSE,162,4.0,6.0,-999,-99.99,,,-99.99,,2013-03-05 20:22:00,
2013-03-05 15:32:00,-999.0,-99.9,30.09,SE,139,3.0,5.0,-999,-99.99,,,-99.99,,2013-03-05 20:32:00,
2013-03-05 15:42:00,-999.0,-99.9,30.09,SW,230,2.0,5.0,-999,-99.99,,,-99.99,,2013-03-05 20:42:00,
2013-03-05 15:52:00,31.0,-99.9,30.09,NW,317,5.0,6.0,-999,-99.99,,,-99.99,,2013-03-05 20:52:00,
2013-03-05 16:02:00,-999.0,-99.9,30.09,NW,326,4.0,6.0,-999,-99.99,,,-99.99,,2013-03-05 21:02:00,
2013-03-05 16:11:00,-999.0,-99.9,30.09,WNW,301,4.0,7.0,-999,-99.99,,,-99.99,,2013-03-05 21:11:00,
2013-03-05 16:22:00,32.0,-99.9,30.08,NW,311,6.0,7.0,-999,-99.99,,,-99.99,,2013-03-05 21:22:00,
2013-03-05 16:32:00,-999.0,-99.9,30.08,NW,319,7.0,8.0,-999,-99.99,,,-99.99,,2013-03-05 21:32:00,
2013-03-05 16:42:00,-999.0,-99.9,30.08,NW,319,7.0,9.0,-999,-99.99,,,-99.99,,2013-03-05 21:42:00,
2013-03-05 16:52:00,31.0,-99.9,30.08,NW,320,7.0,9.0,-999,-99.99,,,-99.99,,2013-03-05 21:52:00,
2013-03-05 17:01:00,-999.0,-99.9,30.08,NW,319,6.0,8.0,-999,-99.99,,,-99.99,,2013-03-05 22:01:00,
2013-03-05 17:12:00,-999.0,-99.9,30.08,NW,316,5.0,7.0,-999,-99.99,,,-99.99,,2013-03-05 22:12:00,
2013-03-05 17:22:00,31.0,-99.9,30.08,NW,310,4.0,6.0,-999,-99.99,,,-99.99,,2013-03-05 22:22:00,
2013-03-05 17:32:00,-999.0,-99.9,30.07,WNW,289,4.0,5.0,-999,-99.99,,,-99.99,,2013-03-05 22:32:00,
2013-03-05 17:42:00,-999.0,-99.9,30.07,West,276,4.0,6.0,-999,-99.99,,,-99.99,,2013-03-05 22:42:00,
2013-03-05 17:52:00,31.0,-99.9,30.07,WNW,287,6.0,7.0,-999,-99.99,,,-99.99,,2013-03-05 22:52:00,
2013-03-05 18:01:00,-999.0,-99.9,30.07,WNW,285,6.0,8.0,-999,-99.99,,,-99.99,,2013-03-05 23:01:00,
2013-03-05 18:11:00,-999.0,-99.9,30.07,West,276,5.0,7.0,-999,-99.99,,,-99.99,,2013-03-05 23:11:00,
2013-03-05 18:22:00,29.0,-99.9,30.07,WNW,282,5.0,7.0,-999,-99.99,,,-99.99,,2013-03-05 23:22:00,
2013-03-05 18:32:00,-999.0,-99.9,30.08,West,281,4.0,6.0,-999,-99.99,,,-99.99,,2013-03-05 23:32:00,
2013-03-05 18:42:00,-999.0,-99.9,30.08,WNW,284,4.0,5.0,-999,-99.99,,,-99.99,,2013-03-05 23:42:00,
2013-03-05 18:53:00,-999.0,-99.9,30.08,WNW,282,4.0,5.0,-999,-99.99,,,-99.99,,2013-03-05 23:53:00,
2013-03-05 19:02:00,-999.0,-99.9,30.08,West,277,4.0,6.0,-999,-99.99,,,-99.99,,2013-03-06 00:02:00,
2013-03-05 19:11:00,-999.0,-99.9,30.09,West,269,2.0,4.0,-999,-99.99,,,-99.99,,2013-03-06 00:11:00,
2013-03-05 19:22:00,28.0,-99.9,30.09,West,268,2.0,3.0,-999,-99.99,,,-99.99,,2013-03-06 00:22:00,
2013-03-05 19:32:00,-999.0,-99.9,30.09,SW,232,2.0,3.0,-999,-99.99,,,-99.99,,2013-03-06 00:32:00,
2013-03-05 19:42:00,-999.0,-99.9,30.09,SW,233,2.0,3.0,-999,-99.99,,,-99.99,,2013-03-06 00:42:00,
2013-03-05 19:52:00,28.0,-99.9,30.09,SW,230,2.0,3.0,-999,-99.99,,,-99.99,,2013-03-06 00:52:00,
2013-03-05 20:02:00,-999.0,-99.9,30.09,WSW,240,1.0,3.0,-999,-99.99,,,-99.99,,2013-03-06 01:02:00,
2013-03-05 20:11:00,-999.0,-99.9,30.09,West,278,2.0,2.0,-999,-99.99,,,-99.99,,2013-03-06 01:11:00,
2013-03-05 20:22:00,-999.0,-99.9,30.09,NW,308,2.0,2.0,-999,-99.99,,,-99.99,,2013-03-06 01:22:00,
2013-03-05 20:32:00,-999.0,-99.9,30.09,NE,52,3.0,5.0,-999,-99.99,,,-99.99,,2013-03-06 01:32:00,
2013-03-05 20:42:00,33.0,-99.9,30.09,ENE,61,13.0,17.0,-999,-99.99,,,-99.99,,2013-03-06 01:42:00,
2013-03-05 20:52:00,33.0,-99.9,30.09,ENE,61,14.0,18.0,-999,-99.99,,,-99.99,,2013-03-06 01:52:00,
2013-03-05 21:01:00,33.0,-99.9,30.09,ENE,64,16.0,20.0,-999,-99.99,,,-99.99,,2013-03-06 02:01:00,
2013-03-05 21:11:00,33.0,-99.9,30.09,ENE,62,15.0,20.0,-999,-99.99,,,-99.99,,2013-03-06 02:11:00,
2013-03-05 21:22:00,33.0,-99.9,30.09,ENE,58,15.0,20.0,-999,-99.99,,,-99.99,,2013-03-06 02:22:00,
2013-03-05 21:32:00,32.0,-99.9,30.09,ENE,59,15.0,21.0,-999,-99.99,,,-99.99,,2013-03-06 02:32:00,
2013-03-05 21:42:00,32.0,-99.9,30.10,NE,54,14.0,18.0,-999,-99.99,,,-99.99,,2013-03-06 02:42:00,
2013-03-05 21:52:00,-999.0,-99.9,30.09,NE,47,13.0,17.0,-999,-99.99,,,-99.99,,2013-03-06 02:52:00,
2013-03-05 22:02:00,-999.0,-99.9,30.10,NE,51,18.0,22.0,-999,-99.99,,,-99.99,,2013-03-06 03:02:00,
2013-03-05 22:12:00,-999.0,-99.9,30.11,NE,53,15.0,19.0,-999,-99.99,,,-99.99,,2013-03-06 03:12:00,
2013-03-05 22:22:00,31.0,-99.9,30.11,ENE,57,16.0,18.0,-999,-99.99,,,-99.99,,2013-03-06 03:22:00,
2013-03-05 22:32:00,-999.0,-99.9,30.11,ENE,61,17.0,20.0,-999,-99.99,,,-99.99,,2013-03-06 03:32:00,
2013-03-05 22:42:00,-999.0,-99.9,30.12,ENE,64,14.0,18.0,-999,-99.99,,,-99.99,,2013-03-06 03:42:00,
2013-03-05 22:53:00,30.0,-99.9,30.13,East,81,10.0,15.0,-999,-99.99,,,-99.99,,2013-03-06 03:53:00,
2013-03-05 23:02:00,-999.0,-99.9,30.13,ENE,64,16.0,21.0,-999,-99.99,,,-99.99,,2013-03-06 04:02:00,
2013-03-05 23:11:00,-999.0,-99.9,30.14,ENE,65,19.0,23.0,-999,-99.99,,,-99.99,,2013-03-06 04:11:00,
2013-03-05 23:22:00,29.0,-99.9,30.14,ENE,75,14.0,23.0,-999,-99.99,,,-99.99,,2013-03-06 04:22:00,
2013-03-05 23:32:00,-999.0,-99.9,30.14,ENE,58,17.0,19.0,-999,-99.99,,,-99.99,,2013-03-06 04:32:00,
2013-03-05 23:42:00,-999.0,-99.9,30.14,NE,56,16.0,19.0,-999,-99.99,,,-99.99,,2013-03-06 04:42:00,
2013-03-05 23:52:00,29.0,-99.9,30.15,ENE,57,15.0,18.0,-999,-99.99,,,-99.99,,2013-03-06 04:52:00,